Time,TemperatureF,DewpointF,PressureIn,WindDirection,WindDirectionDegrees,WindSpeedMPH,WindSpeedGustMPH,Humidity,HourlyPrecipIn,Conditions,Clouds,dailyrainin,SoftwareType,DateUTC
2013-12-05 00:00:00,14.9,10.9,29.84,WNW,287,10.0,23.0,84,0.00,,,0.00,VWS V14.01,2013-12-05 06:00:00,
2013-12-05 00:01:00,14.9,10.7,29.84,NW,315,8.0,14.0,83,0.00,,,0.00,VWS V14.01,2013-12-05 06:01:00,
2013-12-05 00:06:00,14.7,10.8,29.85,WNW,293,8.0,23.0,84,0.00,,,0.00,VWS V14.01,2013-12-05 06:06:00,
2013-12-05 00:11:00,14.6,10.7,29.84,NW,319,5.0,23.0,84,0.00,,,0.00,VWS V14.01,2013-12-05 06:11:00,
2013-12-05 00:16:00,14.5,10.3,29.85,WNW,285,12.0,23.0,83,0.00,,,0.00,VWS V14.01,2013-12-05 06:16:00,
2013-12-05 00:21:00,14.5,10.3,29.86,West,281,10.0,23.0,83,0.00,,,0.00,VWS V14.01,2013-12-05 06:21:00,
2013-12-05 00:26:00,14.3,10.1,29.86,WNW,293,12.0,23.0,83,0.00,,,0.00,VWS V14.01,2013-12-05 06:26:00,
2013-12-05 00:30:00,14.3,10.4,29.86,WNW,293,9.0,23.0,84,0.00,,,0.00,VWS V14.01,2013-12-05 06:30:00,
2013-12-05 00:31:00,14.3,10.4,29.86,WNW,293,7.0,14.0,84,0.00,,,0.00,VWS V14.01,2013-12-05 06:31:00,
2013-12-05 00:36:00,14.3,10.4,29.86,WNW,297,11.0,18.0,84,0.00,,,0.00,VWS V14.01,2013-12-05 06:36:00,
2013-12-05 00:41:00,14.1,9.9,29.87,NW,308,6.0,23.0,83,0.00,,,0.00,VWS V14.01,2013-12-05 06:41:00,
2013-12-05 00:46:00,13.7,9.2,29.86,NW,323,4.0,23.0,82,0.00,,,0.00,VWS V14.01,2013-12-05 06:46:00,
2013-12-05 00:51:00,13.3,8.8,29.85,WNW,298,8.0,23.0,82,0.00,,,0.00,VWS V14.01,2013-12-05 06:51:00,
2013-12-05 00:56:00,13.0,8.6,29.85,WNW,293,14.0,23.0,82,0.00,,,0.00,VWS V14.01,2013-12-05 06:56:00,
2013-12-05 01:00:00,12.9,8.4,29.85,WNW,283,7.0,23.0,82,0.00,,,0.00,VWS V14.01,2013-12-05 07:00:00,
2013-12-05 01:01:00,12.9,8.4,29.85,WNW,297,8.0,10.0,82,0.00,,BKN055,0.00,VWS V14.01,2013-12-05 07:01:00,
2013-12-05 01:06:00,12.9,8.7,29.86,West,259,11.0,15.0,83,0.00,,BKN055,0.00,VWS V14.01,2013-12-05 07:06:00,
2013-12-05 01:11:00,12.8,8.9,29.87,WNW,295,7.0,15.0,84,0.00,,BKN055,0.00,VWS V14.01,2013-12-05 07:11:00,
2013-12-05 01:16:00,12.8,8.6,29.87,WNW,293,7.0,15.0,83,0.00,,BKN014,0.00,VWS V14.01,2013-12-05 07:16:00,
2013-12-05 01:21:00,12.7,8.3,29.87,WNW,284,13.0,17.0,82,0.00,,BKN014,0.00,VWS V14.01,2013-12-05 07:21:00,
2013-12-05 01:26:00,12.5,7.8,29.87,WNW,288,13.0,19.0,81,0.00,,BKN014,0.00,VWS V14.01,2013-12-05 07:26:00,
2013-12-05 01:30:00,12.4,7.7,29.88,West,275,17.0,19.0,81,0.00,,,0.00,VWS V14.01,2013-12-05 07:30:00,
2013-12-05 01:31:00,12.4,7.7,29.88,WNW,302,6.0,19.0,81,0.00,,BKN014,0.00,VWS V14.01,2013-12-05 07:31:00,
2013-12-05 01:36:00,12.3,7.9,29.89,NW,315,6.0,19.0,82,0.00,,BKN014,0.00,VWS V14.01,2013-12-05 07:36:00,
2013-12-05 01:41:00,12.3,8.1,29.89,WNW,300,10.0,19.0,83,0.00,,,0.00,VWS V14.01,2013-12-05 07:41:00,
2013-12-05 01:46:00,12.3,8.4,29.90,WNW,302,8.0,19.0,84,0.00,,,0.00,VWS V14.01,2013-12-05 07:46:00,
2013-12-05 01:51:00,12.2,8.6,29.90,WNW,290,6.0,20.0,85,0.00,,,0.00,VWS V14.01,2013-12-05 07:51:00,
2013-12-05 01:56:00,11.9,8.3,29.90,WNW,286,9.0,20.0,85,0.00,,SCT021,0.00,VWS V14.01,2013-12-05 07:56:00,
2013-12-05 02:00:00,11.9,8.0,29.90,West,269,7.0,20.0,84,0.00,,,0.00,VWS V14.01,2013-12-05 08:00:00,
2013-12-05 02:01:00,11.9,8.0,29.90,West,269,15.0,18.0,84,0.00,,SCT021,0.00,VWS V14.01,2013-12-05 08:01:00,
2013-12-05 02:06:00,11.7,7.3,29.91,NW,318,12.0,18.0,82,0.00,,SCT021,0.00,VWS V14.01,2013-12-05 08:06:00,
2013-12-05 02:11:00,11.4,7.0,29.91,WNW,284,8.0,18.0,82,0.00,,SCT021,0.00,VWS V14.01,2013-12-05 08:11:00,
2013-12-05 02:16:00,11.3,6.9,29.91,NW,310,16.0,19.0,82,0.00,,SCT021,0.00,VWS V14.01,2013-12-05 08:16:00,
2013-12-05 02:21:00,11.1,6.4,29.92,NW,316,9.0,24.0,81,0.00,,SCT021,0.00,VWS V14.01,2013-12-05 08:21:00,
2013-12-05 02:26:00,10.9,6.2,29.92,WNW,297,14.0,26.0,81,0.00,,BKN021,0.00,VWS V14.01,2013-12-05 08:26:00,
2013-12-05 02:30:00,10.8,6.1,29.92,WNW,291,12.0,26.0,81,0.00,,,0.00,VWS V14.01,2013-12-05 08:30:00,
2013-12-05 02:31:00,10.8,6.1,29.92,NW,322,14.0,14.0,81,0.00,,BKN021,0.00,VWS V14.01,2013-12-05 08:31:00,
2013-12-05 02:36:00,10.7,6.3,29.93,West,281,15.0,20.0,82,0.00,,BKN021,0.00,VWS V14.01,2013-12-05 08:36:00,
2013-12-05 02:41:00,10.7,6.0,29.94,NW,322,5.0,20.0,81,0.00,,BKN021,0.00,VWS V14.01,2013-12-05 08:41:00,
2013-12-05 02:46:00,10.6,5.9,29.94,NW,311,11.0,20.0,81,0.00,,BKN021,0.00,VWS V14.01,2013-12-05 08:46:00,
2013-12-05 02:51:00,10.5,5.8,29.94,WNW,302,5.0,22.0,81,0.00,,BKN021,0.00,VWS V14.01,2013-12-05 08:51:00,
2013-12-05 02:56:00,10.5,5.8,29.95,WNW,291,14.0,22.0,81,0.00,,BKN021,0.00,VWS V14.01,2013-12-05 08:56:00,
2013-12-05 03:00:00,10.5,5.8,29.95,West,266,7.0,22.0,81,0.00,,,0.00,VWS V14.01,2013-12-05 09:00:00,
2013-12-05 03:01:00,10.5,5.8,29.95,NW,307,9.0,10.0,81,0.00,,OVC019,0.00,VWS V14.01,2013-12-05 09:01:00,
2013-12-05 03:06:00,10.5,5.8,29.96,WNW,300,4.0,16.0,81,0.00,,OVC019,0.00,VWS V14.01,2013-12-05 09:06:00,
2013-12-05 03:11:00,10.4,5.7,29.96,NW,316,7.0,17.0,81,0.00,,OVC019,0.00,VWS V14.01,2013-12-05 09:11:00,
2013-12-05 03:16:00,10.4,5.7,29.96,WNW,298,16.0,18.0,81,0.00,,OVC019,0.00,VWS V14.01,2013-12-05 09:16:00,
2013-12-05 03:21:00,10.4,5.7,29.97,WNW,298,10.0,18.0,81,0.00,,OVC019,0.00,VWS V14.01,2013-12-05 09:21:00,
2013-12-05 03:26:00,10.3,5.6,29.97,WNW,293,10.0,18.0,81,0.00,,OVC019,0.00,VWS V14.01,2013-12-05 09:26:00,
2013-12-05 03:30:00,10.3,5.6,29.97,WNW,301,9.0,18.0,81,0.00,,,0.00,VWS V14.01,2013-12-05 09:30:00,
2013-12-05 03:31:00,10.3,5.6,29.97,NW,304,8.0,9.0,81,0.00,,OVC019,0.00,VWS V14.01,2013-12-05 09:31:00,
2013-12-05 03:36:00,10.2,5.5,29.97,NW,314,6.0,20.0,81,0.00,,OVC019,0.00,VWS V14.01,2013-12-05 09:36:00,
2013-12-05 03:41:00,10.1,5.4,29.97,NW,312,6.0,21.0,81,0.00,,OVC019,0.00,VWS V14.01,2013-12-05 09:41:00,
2013-12-05 03:46:00,10.1,5.7,29.98,WNW,302,4.0,21.0,82,0.00,,OVC019,0.00,VWS V14.01,2013-12-05 09:46:00,
2013-12-05 03:51:00,10.1,5.4,29.98,NW,319,8.0,21.0,81,0.00,,OVC019,0.00,VWS V14.01,2013-12-05 09:51:00,
2013-12-05 03:56:00,10.0,5.3,29.98,NNW,337,6.0,21.0,81,0.00,,OVC021,0.00,VWS V14.01,2013-12-05 09:56:00,
2013-12-05 04:00:00,10.0,5.3,29.99,WNW,293,10.0,21.0,81,0.00,,,0.00,VWS V14.01,2013-12-05 10:00:00,
2013-12-05 04:01:00,9.9,5.2,29.98,NW,314,5.0,16.0,81,0.00,,OVC021,0.00,VWS V14.01,2013-12-05 10:01:00,
2013-12-05 04:06:00,9.8,5.2,29.99,NW,308,8.0,21.0,81,0.00,,OVC021,0.00,VWS V14.01,2013-12-05 10:06:00,
2013-12-05 04:11:00,9.8,5.2,30.00,WNW,293,8.0,21.0,81,0.00,,OVC021,0.00,VWS V14.01,2013-12-05 10:11:00,
2013-12-05 04:16:00,9.7,5.1,30.00,WNW,290,7.0,21.0,81,0.00,,OVC021,0.00,VWS V14.01,2013-12-05 10:16:00,
2013-12-05 04:21:00,9.7,5.1,30.00,WNW,302,8.0,21.0,81,0.00,,OVC021,0.00,VWS V14.01,2013-12-05 10:21:00,
2013-12-05 04:26:00,9.6,4.9,30.01,NW,304,11.0,21.0,81,0.00,,OVC021,0.00,VWS V14.01,2013-12-05 10:26:00,
2013-12-05 04:30:00,9.6,4.9,30.01,WNW,298,5.0,21.0,81,0.00,,,0.00,VWS V14.01,2013-12-05 10:30:00,
2013-12-05 04:31:00,9.6,4.9,30.01,NW,322,8.0,15.0,81,0.00,,OVC021,0.00,VWS V14.01,2013-12-05 10:31:00,
2013-12-05 04:36:00,9.5,5.1,30.01,WNW,285,17.0,17.0,82,0.00,,OVC021,0.00,VWS V14.01,2013-12-05 10:36:00,
2013-12-05 04:41:00,9.5,5.1,30.01,NW,311,5.0,18.0,82,0.00,,OVC021,0.00,VWS V14.01,2013-12-05 10:41:00,
2013-12-05 04:46:00,9.4,5.0,30.01,WNW,297,9.0,18.0,82,0.00,,OVC021,0.00,VWS V14.01,2013-12-05 10:46:00,
2013-12-05 04:51:00,9.2,4.6,30.02,NW,307,9.0,18.0,81,0.00,,OVC021,0.00,VWS V14.01,2013-12-05 10:51:00,
2013-12-05 04:56:00,9.2,4.8,30.02,NW,304,3.0,18.0,82,0.00,,OVC021,0.00,VWS V14.01,2013-12-05 10:56:00,
2013-12-05 05:00:00,9.1,4.7,30.03,NW,305,8.0,18.0,82,0.00,,,0.00,VWS V14.01,2013-12-05 11:00:00,
2013-12-05 05:01:00,9.1,4.7,30.03,WNW,298,3.0,9.0,82,0.00,,OVC021,0.00,VWS V14.01,2013-12-05 11:01:00,
2013-12-05 05:06:00,9.0,4.6,30.03,West,269,11.0,15.0,82,0.00,,OVC021,0.00,VWS V14.01,2013-12-05 11:06:00,
2013-12-05 05:11:00,8.9,4.3,30.03,NW,308,8.0,15.0,81,0.00,,OVC021,0.00,VWS V14.01,2013-12-05 11:11:00,
2013-12-05 05:16:00,8.9,4.5,30.03,WNW,301,12.0,17.0,82,0.00,,OVC021,0.00,VWS V14.01,2013-12-05 11:16:00,
2013-12-05 05:21:00,8.8,4.2,30.04,WNW,293,7.0,19.0,81,0.00,,OVC021,0.00,VWS V14.01,2013-12-05 11:21:00,
2013-12-05 05:26:00,8.7,4.1,30.03,West,260,9.0,19.0,81,0.00,,OVC021,0.00,VWS V14.01,2013-12-05 11:26:00,
2013-12-05 05:30:00,8.7,4.1,30.03,WNW,291,8.0,19.0,81,0.00,,,0.00,VWS V14.01,2013-12-05 11:30:00,
2013-12-05 05:31:00,8.7,4.1,30.03,NW,304,10.0,11.0,81,0.00,,OVC021,0.00,VWS V14.01,2013-12-05 11:31:00,
2013-12-05 05:36:00,8.6,4.0,30.04,NW,311,8.0,13.0,81,0.00,,OVC021,0.00,VWS V14.01,2013-12-05 11:36:00,
2013-12-05 05:41:00,8.5,4.2,30.04,West,266,8.0,15.0,82,0.00,,OVC021,0.00,VWS V14.01,2013-12-05 11:41:00,
2013-12-05 05:46:00,8.4,3.8,30.05,NNW,333,12.0,18.0,81,0.00,,OVC021,0.00,VWS V14.01,2013-12-05 11:46:00,
2013-12-05 05:51:00,8.4,3.8,30.06,West,276,7.0,19.0,81,0.00,,OVC021,0.00,VWS V14.01,2013-12-05 11:51:00,
2013-12-05 05:56:00,8.3,3.7,30.06,NNW,332,5.0,19.0,81,0.00,,BKN021,0.00,VWS V14.01,2013-12-05 11:56:00,
2013-12-05 06:00:00,8.3,3.7,30.06,WNW,298,10.0,19.0,81,0.00,,,0.00,VWS V14.01,2013-12-05 12:00:00,
2013-12-05 06:01:00,8.3,3.7,30.07,WNW,294,7.0,8.0,81,0.00,,BKN021,0.00,VWS V14.01,2013-12-05 12:01:00,
2013-12-05 06:06:00,8.3,3.7,30.07,NW,307,9.0,15.0,81,0.00,,BKN021,0.00,VWS V14.01,2013-12-05 12:06:00,
2013-12-05 06:11:00,8.3,3.7,30.07,NW,304,7.0,15.0,81,0.00,,BKN021,0.00,VWS V14.01,2013-12-05 12:11:00,
2013-12-05 06:16:00,8.3,3.7,30.06,WNW,297,8.0,15.0,81,0.00,,BKN021,0.00,VWS V14.01,2013-12-05 12:16:00,
2013-12-05 06:21:00,8.2,3.6,30.06,NW,321,7.0,17.0,81,0.00,,BKN021,0.00,VWS V14.01,2013-12-05 12:21:00,
2013-12-05 06:26:00,8.1,3.5,30.07,WNW,295,4.0,17.0,81,0.00,,BKN021,0.00,VWS V14.01,2013-12-05 12:26:00,
2013-12-05 21:30:00,4.3,-0.5,30.40,NW,305,4.0,11.0,80,0.00,,,0.00,VWS V14.01,2013-12-06 03:30:00,
2013-12-05 22:00:00,4.0,-1.0,30.41,NW,319,7.0,13.0,79,0.00,,,0.00,VWS V14.01,2013-12-06 04:00:00,
2013-12-05 22:09:00,4.5,-0.6,30.40,WNW,302,8.0,8.0,79,0.00,,BKN021,0.00,VWS V14.01,2013-12-06 04:09:00,
2013-12-05 22:14:00,4.4,-0.7,30.40,NW,307,6.0,11.0,79,0.00,,CLR,0.00,VWS V14.01,2013-12-06 04:14:00,
2013-12-05 22:19:00,4.4,-0.4,30.40,WNW,288,5.0,11.0,80,0.00,,CLR,0.00,VWS V14.01,2013-12-06 04:19:00,
2013-12-05 22:24:00,4.4,-0.4,30.40,NW,319,4.0,11.0,80,0.00,,CLR,0.00,VWS V14.01,2013-12-06 04:24:00,
2013-12-05 22:29:00,4.3,-0.5,30.40,NW,323,10.0,11.0,80,0.00,,CLR,0.00,VWS V14.01,2013-12-06 04:29:00,
2013-12-05 22:30:00,4.3,-0.5,30.40,NW,305,4.0,11.0,80,0.00,,,0.00,VWS V14.01,2013-12-06 04:30:00,
2013-12-05 22:34:00,4.3,-0.8,30.40,WNW,300,5.0,13.0,79,0.00,,CLR,0.00,VWS V14.01,2013-12-06 04:34:00,
2013-12-05 22:39:00,4.2,-0.6,30.39,NW,314,3.0,13.0,80,0.00,,CLR,0.00,VWS V14.01,2013-12-06 04:39:00,
2013-12-05 22:44:00,4.2,-0.6,30.41,WNW,291,5.0,13.0,80,0.00,,CLR,0.00,VWS V14.01,2013-12-06 04:44:00,
2013-12-05 22:49:00,4.2,-0.9,30.42,WNW,300,6.0,13.0,79,0.00,,CLR,0.00,VWS V14.01,2013-12-06 04:49:00,
2013-12-05 22:54:00,4.1,-0.9,30.42,WNW,298,9.0,13.0,79,0.00,,CLR,0.00,VWS V14.01,2013-12-06 04:54:00,
2013-12-05 22:59:00,4.0,-1.0,30.41,NW,325,4.0,13.0,79,0.00,,CLR,0.00,VWS V14.01,2013-12-06 04:59:00,
2013-12-05 23:00:00,4.0,-1.0,30.41,NW,319,7.0,13.0,79,0.00,,,0.00,VWS V14.01,2013-12-06 05:00:00,
2013-12-05 23:01:00,4.0,-1.0,30.41,NW,326,5.0,6.0,79,0.00,,CLR,0.00,VWS V14.01,2013-12-06 05:01:00,
2013-12-05 23:06:00,3.9,-1.1,30.42,NW,308,5.0,11.0,79,0.00,,CLR,0.00,VWS V14.01,2013-12-06 05:06:00,
2013-12-05 23:11:00,3.8,-1.2,30.41,WNW,294,6.0,11.0,79,0.00,,CLR,0.00,VWS V14.01,2013-12-06 05:11:00,
2013-12-05 23:16:00,3.7,-1.3,30.41,NW,314,2.0,11.0,79,0.00,,CLR,0.00,VWS V14.01,2013-12-06 05:16:00,
2013-12-05 23:21:00,3.6,-1.4,30.41,NW,317,2.0,11.0,79,0.00,,CLR,0.00,VWS V14.01,2013-12-06 05:21:00,
2013-12-05 23:26:00,3.5,-1.5,30.41,NW,319,4.0,11.0,79,0.00,,CLR,0.00,VWS V14.01,2013-12-06 05:26:00,
2013-12-05 23:30:00,3.4,-1.6,30.41,NW,323,5.0,11.0,79,0.00,,,0.00,VWS V14.01,2013-12-06 05:30:00,
2013-12-05 23:31:00,3.4,-1.6,30.41,NW,325,3.0,6.0,79,0.00,,CLR,0.00,VWS V14.01,2013-12-06 05:31:00,
2013-12-05 23:36:00,3.3,-1.7,30.42,NW,305,5.0,8.0,79,0.00,,CLR,0.00,VWS V14.01,2013-12-06 05:36:00,
2013-12-05 23:41:00,3.3,-1.5,30.42,NW,318,2.0,8.0,80,0.00,,CLR,0.00,VWS V14.01,2013-12-06 05:41:00,
2013-12-05 23:46:00,3.3,-1.7,30.42,NW,322,1.0,8.0,79,0.00,,CLR,0.00,VWS V14.01,2013-12-06 05:46:00,
2013-12-05 23:51:00,3.3,-1.7,30.42,NNW,343,2.0,8.0,79,0.00,,CLR,0.00,VWS V14.01,2013-12-06 05:51:00,
2013-12-05 23:56:00,3.3,-1.7,30.42,NNW,333,1.0,8.0,79,0.00,,CLR,0.00,VWS V14.01,2013-12-06 05:56:00,